Date,TemperatureHighF,TemperatureAvgF,TemperatureLowF,DewpointHighF,DewpointAvgF,DewpointLowF,HumidityHigh,HumidityAvg,HumidityLow,PressureMaxIn,PressureMinIn,WindSpeedMaxMPH,WindSpeedAvgMPH,GustSpeedMaxMPH,PrecipitationSumIn
2013-2-1,47.5,33.3,19.1,29.0,18.2,14.2,85,58,33,25.25,25.10,13,2,13,0.00
2013-2-2,54.0,34.9,18.7,28.5,18.3,11.7,79,53,27,25.35,25.24,8,1,8,0.00
2013-2-3,46.4,33.6,22.3,23.3,15.8,9.4,64,49,37,25.31,24.99,8,1,8,0.00
2013-2-4,56.3,40.2,26.1,17.7,12.4,7.2,52,33,18,25.07,24.93,13,2,13,0.00
2013-2-5,57.2,43.3,25.7,24.2,18.1,8.5,52,37,27,25.12,24.96,9,2,9,0.00
2013-2-6,54.2,40.5,30.2,30.1,23.3,15.4,82,52,32,25.16,24.92,12,2,12,0.02
2013-2-7,45.2,33.4,22.1,32.1,21.3,12.6,85,64,36,25.23,25.10,6,1,6,0.01
2013-2-8,48.8,30.6,18.4,20.3,12.9,8.5,69,50,24,25.11,24.82,9,1,9,0.00
2013-2-9,39.4,29.1,20.0,25.4,17.5,7.5,79,63,46,24.84,24.69,12,2,12,0.00
2013-2-10,38.7,27.6,20.3,25.8,15.7,8.4,82,63,36,25.11,24.71,22,2,22,0.03
2013-2-11,29.2,21.9,14.0,17.6,12.6,7.3,79,68,55,25.14,25.05,10,1,10,0.00
2013-2-12,39.8,24.7,9.0,19.6,7.6,2.3,80,52,27,25.12,25.05,7,1,7,0.00
2013-2-13,46.8,32.7,17.1,18.6,11.5,2.3,59,42,29,25.11,24.99,13,2,13,0.00
2013-2-14,37.8,27.0,20.0,23.0,16.9,10.4,76,66,40,25.33,25.07,20,2,20,0.01
2013-2-15,42.7,26.1,14.6,24.3,14.5,9.0,81,64,31,25.32,25.26,10,1,10,0.02
2013-2-16,55.1,40.9,17.1,23.0,15.7,9.3,75,38,23,25.27,25.07,13,2,13,0.00
2013-2-17,60.5,46.8,29.3,15.3,8.3,2.1,43,23,11,25.07,24.71,19,4,19,0.00
2013-2-18,42.8,31.0,19.4,23.1,9.7,1.6,67,43,23,25.15,24.85,10,2,10,0.00
2013-2-19,39.4,27.2,16.2,15.3,9.6,1.6,58,48,33,25.16,24.90,13,1,13,0.00
2013-2-20,37.4,25.5,17.3,23.7,15.5,8.4,82,67,46,24.92,24.76,9,2,9,0.00
2013-2-21,32.4,21.9,14.8,21.8,15.4,10.0,83,76,61,24.97,24.83,6,1,6,0.22
2013-2-22,37.1,24.0,11.9,27.4,16.0,7.7,85,72,60,25.03,24.92,6,1,6,0.04
2013-2-23,41.9,27.1,13.0,26.9,17.4,6.9,83,67,53,24.95,24.75,9,2,9,0.00
2013-2-24,30.4,27.2,22.7,25.4,23.2,17.6,90,85,79,25.17,24.83,18,2,18,0.04
2013-2-25,39.8,21.6,8.3,27.2,14.6,4.1,88,75,58,25.17,24.94,7,1,7,0.12
2013-2-26,43.0,26.8,12.8,31.6,18.8,8.0,85,72,56,25.17,24.90,17,3,17,0.06
2013-2-27,49.9,24.9,13.5,28.2,13.0,6.6,78,62,40,25.27,25.16,13,1,13,0.00
2013-2-28,45.2,30.4,13.3,25.4,14.8,4.3,75,54,33,25.29,25.21,8,1,8,0.00